EGPK

Glasgow Prestwick Airport

Airport
ICAO code
EGPK
IATA Code
PIK
Summary
ICAO Region
EUR
ICAO Territory
Location

Prestwick, South Ayrshire, Scotland

Serving
Glasgow
Elevation
65 ft
Coordinates
55° 30' 21" N , 4° 35' 12" W
KCC
Metar
Observation
EGPK 252250Z 07010KT 9999 BKN026 05/02 Q1004
Station
Prestwick Airport
Date/Time
2023-03-25 22:50:00
Wind direction
70°
Wind speed
10 kts
Lowest cloud amount
broken clouds
Temperature
5°C
Dew point
2°C
Humidity
80%
QNH
1004 hPa
Weather condition
n/a

Description

International airport serving south west Scotland and the Glasgow urban area, situated 50 km from Glasgow city centre.

Climatology

Temperate Marine climate/Oceanic climate (Köppen climate classification Cfb). Moderately cool summer and comparatively warm winter with a temperature range of only 14°C. Prevailing south-westerly winds from the Atlantic Ocean.

Runways

Designator Length Width Surface Rops
3/21 1829 45 ASP Yes/Yes
13/31 2987 46 PEM Yes/Yes

SKYbrary Partners:

Safety knowledge contributed by: